Regional Weather Roundup
Issued by NWS Green Bay, WI

Home | Current Version | Previous Version | Graphics & Text | Print | Product List | Glossary Off
Versions: 1 2 3 4 5 6 7 8 9 10 11 12 13 14 15 16 17 18 19 20 21 22 23 24 25 26 27 28 29 30 31 32 33 34 35 36 37 38 39 40 41 42 43 44 45 46 47 48 49 50

903
ASUS43 KGRB 050400
RWRGRB

NORTH-CENTRAL AND NORTHEAST WISCONSIN REGIONAL WEATHER ROUNDUP
NATIONAL WEATHER SERVICE GREEN BAY WI
1000 PM CST SUN DEC 04 2016

WIZ005-009-010>012-018-019-050500-
NORTH CENTRAL WISCONSIN

CITY           SKY/WX    TMP DP  RH WIND       PRES   REMARKS
IRONWOOD       CLOUDY    32  30  92 SW8       29.66F
MANITOWISH WTR NOT AVBL
ARBOR VITAE    NOT AVBL
EAGLE RIVER    NOT AVBL
LAND O LAKES   NOT AVBL
RHINELANDER    CLOUDY    30  30 100 SW8       29.69F
PHILLIPS       CLOUDY    31  31 100 SW8       29.68S
ANTIGO         NOT AVBL
TOMAHAWK       NOT AVBL
MERRILL        NOT AVBL
$$

WIZ013-073-050500-
NORTHEAST WISCONSIN

CITY           SKY/WX    TMP DP  RH WIND       PRES   REMARKS
IRON MOUNTAIN  CLOUDY    30  27  88 S5        29.71S FOG
MARINETTE      CLOUDY    32  31  96 W6        29.77F
$$

WIZ017-030-035>037-045-050500-
CENTRAL WISCONSIN

CITY           SKY/WX    TMP DP  RH WIND       PRES   REMARKS
MEDFORD        NOT AVBL
WAUSAU         CLOUDY    31  30  96 SW10      29.73S
MOSINEE        NOT AVBL
MARSHFIELD     LGT SNOW  32  30  92 SW13      29.74S FOG
WISC RAPIDS    CLOUDY    32  31  96 SW9       29.79R
STEVENS POINT  NOT AVBL
WAUPACA        NOT AVBL
SHAWANO        NOT AVBL
CLINTONVILLE   NOT AVBL
WAUTOMA        CLOUDY    31  30  96 S7        29.81F
$$

WIZ038-039-048-051-050500-
FOX VALLEY

CITY           SKY/WX    TMP DP  RH WIND       PRES   REMARKS
NWS GREEN BAY  CLOUDY    33  32  96 SW8       29.80S
APPLETON       CLOUDY    30  30 100 SW8       29.79S
OSHKOSH        CLOUDY    32  29  88 SW8       29.81S FOG
FOND DU LAC    FLURRIES  32  28  85 SW8       29.83R
$$

WIZ022-050-052-050500-
EAST CENTRAL WISCONSIN

CITY           SKY/WX    TMP DP  RH WIND       PRES   REMARKS
EPHRAIM        NOT AVBL
WASHINGTON ISL NOT AVBL
STURGEON BAY   LGT SNOW  32  31  96 SW9       29.78F FOG
MANITOWOC      NOT AVBL
SHEBOYGAN      CLOUDY    32  29  88 W12       29.82R
$$

LMZ563-521-522-541>543-050500-
LAKESHORE

STATION/POSITION TIME  TEMP    WIND        PRES    VSBY  WAVE
                       AIR SEA DIR/SP/G                  HT/PER
                 (UTC) (F)     (DEG/KT/KT) (MB)    (MI)  (FT/S)
SHEBOYGAN LKSHOR 0300   33     240/ 10/ 12 1010.0F
KEWAUNEE LKSHORE 0330   32     240/  5/  9 1008.5F
ALGOMA MARINA    0321          250/  8/ 10   N/A
NORTHPORT PIER   0340   33     210/  1/  4 1008.1F
CHAMBERS ISLAND  0340   34     200/  8/ 15 1007.8F
MENOMINEE LKSHOR 0330   33     200/  8/ 11 1007.5F
$$




USA.gov is the U.S. government's official web portal to all federal, state and local government web resources and services.